Weather reports worldwide

Advertisment
Ueckermünde, Germany (10193): temperature & dewpoint: 06.11.2019 16:00:00 - 12.11.2019 16:00:00 (CET)Ueckermünde, Germany (10193): temperature 5cm & temperature -5cm: 06.11.2019 16:00:00 - 12.11.2019 16:00:00 (CET)Ueckermünde, Germany (10193): temperature -20cm & temperature -100cm: 06.11.2019 16:00:00 - 12.11.2019 16:00:00 (CET)Ueckermünde, Germany (10193): wind speed & gusts: 06.11.2019 16:00:00 - 12.11.2019 16:00:00 (CET)Ueckermünde, Germany (10193): wind direction: 06.11.2019 16:00:00 - 12.11.2019 16:00:00 (CET)Ueckermünde, Germany (10193): reduced air pressure: 06.11.2019 16:00:00 - 12.11.2019 16:00:00 (CET)Ueckermünde, Germany (10193): visibility: 06.11.2019 16:00:00 - 12.11.2019 16:00:00 (CET)Ueckermünde, Germany (10193): sunshine duration: 06.11.2019 16:00:00 - 12.11.2019 16:00:00 (CET)Ueckermünde, Germany (10193): precipitation: 06.11.2019 16:00:00 - 12.11.2019 16:00:00 (CET)
Date & Time tt [°C] td [°C] tt 5cm [°C] tt -5cm [°C] tt -20cm [°C] tt -100cm [°C] ff [km/h] ff [kn] fx [km/h] fx [kn] dd ppp [hPa] vv [km] sd [min] rr [mm]
12.11.2019 16:00:00 5,3 2,6 4,6 5,3 5,9 10,2 13 7 27 15 SSE 1006,1 15 16 0,0
12.11.2019 15:00:00 5,7 2,5 5,8 5,7 5,7 10,2 19 10 29 16 S 1006,0 13 45 0,0
12.11.2019 14:00:00 5,2 2,2 5,3 5,5 5,6 10,2 15 8 26 14 S 1005,8 12 5 0,0
12.11.2019 13:00:00 4,9 2,2 4,9 5,3 5,4 10,2 16 8 29 16 S 1006,2 11 0 0,0
12.11.2019 12:00:00 4,6 2,0 4,6 5,0 5,3 10,2 16 9 26 14 S 1006,6 13 0 0,0
12.11.2019 11:00:00 4,3 1,8 4,8 4,5 5,2 10,2 18 10 28 15 S 1006,4 10 10 0,0
12.11.2019 10:00:00 3,3 1,2 3,3 3,3 5,1 10,3 15 8 25 13 S 1006,5 10 0 0,0
12.11.2019 09:00:00 2,8 1,0 2,7 2,9 5,1 10,3 15 8 24 13 S 1006,3 10 0 0,0
12.11.2019 08:00:00 2,6 0,9 2,3 2,7 5,1 10,3 16 8 23 13 S 1005,8 9 0 0,0
12.11.2019 07:00:00 2,5 0,8 2,0 2,7 5,1 10,3 14 7 28 15 S 1005,4 9 0 0,0
12.11.2019 06:00:00 2,6 0,8 2,3 2,6 5,1 10,3 16 9 25 14 SSE 1005,1 9 0 0,0
12.11.2019 05:00:00 2,3 0,7 1,7 2,2 5,2 10,3 19 10 25 14 S 1005,3 9 0 0,0
12.11.2019 04:00:00 2,0 0,5 1,3 1,9 5,3 10,3 15 8 25 14 S 1005,6 8 0 0,0
12.11.2019 03:00:00 1,9 0,5 1,1 1,7 5,4 10,3 14 7 21 12 SSE 1005,9 7 0 0,0
12.11.2019 02:00:00 1,8 0,5 0,3 1,6 5,5 10,3 9 5 15 8 SE 1006,1 6 0 0,0
12.11.2019 01:00:00 1,9 0,8 0,5 1,8 5,6 10,3 10 5 19 11 SSE 1006,3 6 0 0,0
12.11.2019 00:00:00 2,6 1,2 1,2 2,0 5,8 10,4 13 7 25 14 SSE 1006,9 6 0 0,0
11.11.2019 23:00:00 2,8 1,4 1,5 1,9 5,9 10,4 14 8 26 14 SE 1007,2 6 0 0,0
11.11.2019 22:00:00 1,5 1,1 -2,0 1,8 6,1 10,4 5 3 16 9 ESE 1007,9 3,0 0 0,0
11.11.2019 21:00:00 2,0 1,5 0,2 2,2 6,3 10,4 7 4 15 8 ESE 1008,5 4,1 0 0,0
11.11.2019 20:00:00 2,4 1,7 0,7 2,7 6,5 10,4 8 5 24 13 SE 1008,8 5 0 0,0
11.11.2019 19:00:00 3,1 1,9 1,7 3,1 6,7 10,4 14 8 28 15 SE 1008,8 8 0 0,0
11.11.2019 18:00:00 3,2 2,1 1,9 3,5 6,9 10,4 12 6 19 10 SE 1009,0 7 0 0,0
11.11.2019 17:00:00 3,3 2,2 1,7 4,4 7,0 10,4 10 5 23 12 SSE 1009,8 9 0 0,0
11.11.2019 16:00:00 4,6 2,4 3,6 5,8 7,0 10,4 18 10 29 16 SSE 1010,3 12 34 0,0
11.11.2019 15:00:00 5,8 3,0 6,4 7,0 6,8 10,4 15 8 26 14 SSE 1010,8 13 59 0,0
11.11.2019 14:00:00 5,6 3,1 6,3 6,5 6,7 10,5 16 8 32 17 S 1011,3 12 14 0,0
11.11.2019 13:00:00 4,7 3,3 4,8 6,2 6,6 10,5 14 8 28 15 SSE 1011,9 9 0 0,0
11.11.2019 12:00:00 4,2 3,1 4,6 6,2 6,5 10,5 18 10 29 16 SSE 1012,5 7 0 0,0
11.11.2019 11:00:00 4,0 3,2 4,4 5,4 6,5 10,5 16 9 27 15 SSE 1012,7 5 0 0,0
11.11.2019 10:00:00 3,2 2,7 3,5 4,8 6,5 10,5 16 9 29 16 S 1013,4 4,5 0 0,0
11.11.2019 09:00:00 3,0 2,8 3,3 4,4 6,5 10,5 14 8 21 12 S 1013,7 2,9 0 0,0
11.11.2019 08:00:00 2,4 2,3 2,6 4,2 6,5 10,5 14 7 22 12 S 1014,4 2,4 0 0,0
11.11.2019 07:00:00 2,4 2,4 2,6 4,2 6,6 10,5 11 6 21 12 S 1014,6 2,0 0 0,0
11.11.2019 06:00:00 2,0 2,0 2,2 4,2 6,6 10,5 13 7 22 12 S 1014,8 0,8 0 0,0
11.11.2019 05:00:00 2,3 2,1 2,4 4,3 6,7 10,5 16 8 22 12 S 1014,9 4,8 0 0,0
11.11.2019 04:00:00 2,6 2,3 2,7 4,4 6,7 10,5 13 7 22 12 S 1015,1 4,5 0 0,0
11.11.2019 03:00:00 2,8 2,5 2,9 4,5 6,7 10,5 12 6 22 12 S 1015,2 5 0 0,0
11.11.2019 02:00:00 2,9 2,8 3,0 4,4 6,8 10,5 10 5 20 11 SSW 1015,3 3,6 0 0,0
11.11.2019 01:00:00 2,6 2,6 2,8 4,4 6,8 10,6 11 6 20 11 SSW 1015,4 1,7 0 0,0
11.11.2019 00:00:00 2,6 2,6 2,8 4,4 6,9 10,6 14 8 19 11 S 1015,7 0,8 0 0,0
10.11.2019 23:00:00 2,4 2,4 2,6 4,1 7,0 10,6 12 7 21 12 SW 1015,7 0,3 0 0,0
10.11.2019 22:00:00 1,9 1,9 2,1 3,9 7,2 10,6 16 9 23 12 SSW 1015,7 0,2 0 0,0
10.11.2019 21:00:00 1,5 1,5 1,5 3,7 7,4 10,6 9 5 14 8 SSW 1015,6 0,2 0 0,0
10.11.2019 20:00:00 2,1 2,1 1,0 3,8 7,6 10,6 9 5 12 7 S 1015,5 0,2 0 0,0
10.11.2019 19:00:00 3,1 3,1 0,5 4,6 7,8 10,6 6 4 12 6 SSW 1015,5 1,8 0 0,0
10.11.2019 18:00:00 4,2 3,9 3,1 5,5 7,9 10,6 9 5 12 6 SSW 1015,3 3,7 0 0,0
10.11.2019 17:00:00 4,5 4,1 3,8 5,9 8,0 10,6 9 5 12 6 S 1015,2 3,1 0 0,0
10.11.2019 16:00:00 5,3 3,8 3,6 7,1 8,0 10,6 7 4 14 8 SSW 1014,7 8 26 0,0
10.11.2019 15:00:00 6,7 4,1 6,7 8,4 7,8 10,6 9 5 16 9 SSW 1014,5 11 60 0,0
10.11.2019 14:00:00 6,7 3,8 8,1 8,9 7,6 10,6 11 6 15 8 WSW 1014,1 12 60 0,0
10.11.2019 13:00:00 6,0 3,7 7,9 8,6 7,3 10,6 9 5 16 8 SW 1014,0 11 57 0,0
10.11.2019 12:00:00 6,0 3,5 7,4 8,1 7,1 10,6 13 7 18 10 WSW 1013,8 13 60 0,0
10.11.2019 11:00:00 5,5 3,8 6,6 6,7 6,9 10,6 10 6 14 8 WSW 1013,5 7 60 0,0
10.11.2019 10:00:00 3,5 3,2 4,6 5,0 6,9 10,6 7 4 11 6 SSW 1013,2 6 41 0,0
10.11.2019 09:00:00 1,9 1,9 2,2 4,0 7,0 10,6 9 5 16 9 SSW 1012,9 0,2 0 0,0
10.11.2019 08:00:00 1,2 1,2 1,2 3,6 7,2 10,6 10 6 21 11 S 1012,4 0,3 0 0,0
10.11.2019 07:00:00 1,3 1,3 1,2 3,5 7,4 10,6 8 5 17 9 S 1011,9 0,2 0 0,0
10.11.2019 06:00:00 1,8 1,7 1,0 3,4 7,6 10,7 9 5 13 7 S 1011,2 0,8 0 0,0
10.11.2019 05:00:00 2,8 2,6 1,5 4,0 7,9 10,7 9 5 14 8 SSW 1010,7 4,7 0 0,0
10.11.2019 04:00:00 3,4 3,2 2,3 4,6 8,0 10,7 9 5 14 8 SSW 1010,1 4,9 0 0,0
10.11.2019 03:00:00 4,4 3,9 3,2 5,5 8,2 10,7 10 6 20 11 SW 1009,7 7 0 0,0
10.11.2019 02:00:00 6,1 5,0 5,7 6,5 8,2 10,7 13 7 20 11 WSW 1009,4 17 0 0,0
10.11.2019 01:00:00 6,3 5,2 5,7 6,5 8,3 10,7 13 7 22 12 SW 1009,1 27 0 0,0
10.11.2019 00:00:00 6,1 5,2 5,7 6,4 8,4 10,7 12 7 22 12 SW 1008,8 15 0 0,0
09.11.2019 23:00:00 6,0 5,3 5,5 6,1 8,5 10,7 16 9 23 12 SW 1008,2 9 0 0,0
09.11.2019 22:00:00 5,5 4,9 4,5 6,4 8,7 10,7 14 8 21 12 SW 1007,8 9 0 0,0
09.11.2019 21:00:00 7,0 6,1 6,4 7,4 8,7 10,7 14 8 23 12 WSW 1007,3 10 0 0,0
09.11.2019 20:00:00 7,1 6,1 6,7 7,6 8,8 10,7 14 8 23 12 WSW 1006,8 12 0 0,1
09.11.2019 19:00:00 7,3 6,6 6,9 7,8 8,8 10,7 15 8 25 13 WSW 1006,4 9 0 0,5
09.11.2019 18:00:00 7,5 6,7 7,1 8,0 8,8 10,7 19 10 29 16 W 1006,1 7 0 0,6
09.11.2019 17:00:00 7,9 7,2 7,6 8,4 8,8 10,7 17 9 31 17 W 1005,3 8 0 0,8
09.11.2019 16:00:00 8,4 7,8 8,1 8,7 8,8 10,7 13 7 20 11 W 1004,4 7 0 0,0
09.11.2019 15:00:00 8,6 8,2 8,5 9,0 8,7 10,7 8 4 13 7 SW 1004,4 4,2 0 0,0
09.11.2019 14:00:00 8,5 8,0 8,7 9,0 8,6 10,7 8 4 12 7 WSW 1004,1 5 0 0,0
09.11.2019 13:00:00 8,4 7,9 9,0 8,8 8,5 10,7 7 4 11 6 WSW 1003,9 3,4 0 0,0
09.11.2019 12:00:00 7,8 7,5 7,8 8,2 8,5 10,7 6 3 9 5 SSW 1004,4 2,0 0 0,0
09.11.2019 11:00:00 7,6 7,3 7,6 8,1 8,4 10,7 6 3 10 5 SW 1004,8 2,2 0 0,0
09.11.2019 10:00:00 7,4 7,1 7,5 7,9 8,4 10,7 4 2 7 4 WSW 1004,6 2,1 0 0,0
09.11.2019 09:00:00 7,4 7,2 7,3 7,8 8,4 10,7 3 2 4 2 SSW 1005,0 1,8 0 0,7
09.11.2019 08:00:00 7,2 7,0 7,0 7,6 8,4 10,7 2 1 5 3 SSW 1004,9 1,6 0 0,7
09.11.2019 07:00:00 7,5 6,7 7,3 7,6 8,4 10,7 3 1 6 3 SE 1004,8 2,9 0 0,0
09.11.2019 06:00:00 7,5 6,7 7,3 7,6 8,4 10,8 3 2 9 5 NE 1004,7 3,5 0 0,0
09.11.2019 05:00:00 7,5 6,8 7,2 7,5 8,4 10,8 3 2 8 4 ENE 1005,0 3,4 0 0,0
09.11.2019 04:00:00 7,5 6,7 7,4 7,5 8,4 10,8 5 3 13 7 E 1005,3 3,3 0 0,0
09.11.2019 03:00:00 7,5 6,8 7,3 7,5 8,4 10,8 8 4 17 9 E 1005,5 3,0 0 0,0
09.11.2019 02:00:00 7,6 6,9 7,3 7,5 8,4 10,8 11 6 18 10 ENE 1006,0 2,7 0 0,0
09.11.2019 01:00:00 7,7 6,8 7,4 7,4 8,4 10,8 10 5 17 9 ENE 1006,2 3,0 0 0,0
09.11.2019 00:00:00 7,8 6,8 7,4 7,3 8,4 10,8 10 5 17 9 ENE 1006,8 4,0 0 0,0
08.11.2019 23:00:00 7,9 7,2 7,4 7,2 8,4 10,8 8 4 16 9 NE 1007,1 3,8 0 0,0
08.11.2019 22:00:00 8,0 7,2 7,5 7,0 8,5 10,8 10 6 17 9 ENE 1007,4 4,9 0 0,0
08.11.2019 21:00:00 8,0 7,0 6,8 7,3 8,5 10,8 8 4 14 7 NE 1007,9 6 0 0,0
08.11.2019 20:00:00 7,9 7,1 6,9 7,3 8,6 10,8 5 3 10 5 NE 1008,0 6 0 0,0
08.11.2019 19:00:00 7,9 7,5 6,8 7,5 8,7 10,8 6 3 12 6 NNE 1007,9 6 0 0,0
08.11.2019 18:00:00 8,1 7,2 7,3 7,8 8,7 10,8 5 3 10 6 NNE 1008,3 10 0 0,0
08.11.2019 17:00:00 8,0 7,2 7,1 8,1 8,7 10,8 4 2 8 5 NNE 1008,1 11 0 0,0
08.11.2019 16:00:00 7,7 6,7 7,2 8,8 8,6 10,8 4 2 9 5 NE 1008,5 10 0 0,0
08.11.2019 15:00:00 7,9 6,4 8,1 9,3 8,5 10,8 4 2 8 4 ENE 1008,6 12 1 0,0
08.11.2019 14:00:00 7,7 6,0 8,2 9,6 8,2 10,8 5 3 9 5 NNE 1008,9 14 0 0,0
08.11.2019 13:00:00 8,1 6,0 9,4 9,9 7,9 10,8 7 4 9 5 NNE 1008,9 11 0 0,0
08.11.2019 12:00:00 8,8 6,3 10,0 9,3 7,7 10,9 4 2 9 5 W 1009,1 18 38 0,0
08.11.2019 11:00:00 6,8 5,7 7,2 7,2 7,6 10,9 5 3 14 8 S 1009,4 9 0 0,0
08.11.2019 10:00:00 5,9 5,3 5,9 6,1 7,6 10,9 10 5 15 8 S 1009,3 8 0 0,0
08.11.2019 09:00:00 5,0 4,6 4,5 5,0 7,7 10,9 10 6 15 8 S 1008,7 7 0 0,0
08.11.2019 08:00:00 4,6 4,3 3,7 4,7 7,9 10,9 9 5 16 9 S 1008,3 6 0 0,0
08.11.2019 07:00:00 4,9 4,5 3,7 5,0 8,0 10,9 10 6 16 8 S 1007,4 6 0 0,0
08.11.2019 06:00:00 5,2 4,7 3,6 5,5 8,2 10,9 8 4 15 8 S 1007,1 6 0 0,0
08.11.2019 05:00:00 5,3 4,6 4,1 5,9 8,2 10,9 9 5 16 9 S 1006,8 8 0 0,0
08.11.2019 04:00:00 6,2 5,2 5,3 6,5 8,3 10,9 12 6 21 11 S 1006,3 10 0 0,0
08.11.2019 03:00:00 6,7 5,5 6,5 6,5 8,4 10,9 13 7 21 11 S 1006,3 11 0 0,0
08.11.2019 02:00:00 6,5 5,4 5,7 6,2 8,4 10,9 13 7 22 12 SSE 1005,8 10 0 0,0
08.11.2019 01:00:00 7,2 5,9 6,3 6,9 8,5 10,9 15 8 26 14 SSE 1005,5 12 0 0,0
08.11.2019 00:00:00 7,7 6,2 7,1 6,9 8,5 10,9 12 7 21 11 SSE 1005,0 12 0 0,0
07.11.2019 23:00:00 7,9 6,6 6,9 7,0 8,6 10,9 14 8 23 12 SSE 1005,1 10 0 0,0
07.11.2019 22:00:00 7,9 7,0 7,2 6,9 8,7 10,9 13 7 21 11 SSE 1005,2 7 0 0,0
07.11.2019 21:00:00 7,6 7,0 6,6 6,9 8,8 10,9 13 7 21 11 SSE 1005,0 6 0 0,0
07.11.2019 20:00:00 6,7 6,5 4,1 6,6 8,9 10,9 6 3 10 6 ESE 1004,6 2,8 0 0,0
07.11.2019 19:00:00 7,8 7,3 6,7 7,8 8,9 10,9 6 3 11 6 ESE 1004,6 6 0 0,0
07.11.2019 18:00:00 8,0 7,5 7,6 8,2 8,9 10,9 5 3 14 8 ESE 1004,5 6 0 0,0
07.11.2019 17:00:00 7,9 7,3 7,9 8,4 8,9 10,9 7 4 11 6 SE 1004,3 6 0 0,0
07.11.2019 16:00:00 7,9 7,1 7,9 8,6 8,9 10,9 6 4 15 8 SE 1003,9 7 0 0,0
07.11.2019 15:00:00 7,8 7,0 7,9 8,8 8,8 10,9 7 4 15 8 SE 1003,7 8 0 0,0
07.11.2019 14:00:00 7,7 6,5 8,1 9,0 8,7 10,9 10 5 18 10 SE 1003,6 10 0 0,0
07.11.2019 13:00:00 7,6 6,5 8,5 9,0 8,6 10,9 6 4 11 6 ESE 1003,9 11 0 0,0
07.11.2019 12:00:00 6,9 6,1 7,6 8,4 8,5 10,9 6 3 10 6 SE 1004,1 12 0 0,0
07.11.2019 11:00:00 6,4 5,6 7,0 7,9 8,4 10,9 7 4 16 9 S 1004,4 10 0 0,0
07.11.2019 10:00:00 6,1 5,3 6,4 7,3 8,4 10,9 9 5 16 9 S 1004,3 11 0 0,0
07.11.2019 09:00:00 5,8 5,0 5,8 6,7 8,5 10,9 11 6 16 9 S 1004,1 13 0 0,0
07.11.2019 08:00:00 5,3 5,3 5,0 5,7 8,6 10,9 7 4 11 6 SSW 1003,7 8 0 0,0
07.11.2019 07:00:00 5,6 5,5 4,6 6,6 8,6 10,9 5 3 9 5 S 1003,2 10 0 0,0
07.11.2019 06:00:00 6,1 5,9 5,8 7,0 8,7 10,9 6 3 9 5 S 1003,1 12 0 0,0
07.11.2019 05:00:00 5,9 5,7 5,4 7,0 8,8 10,9 5 3 8 4 S 1003,0 9 0 0,0
07.11.2019 04:00:00 6,0 5,7 5,7 7,1 8,8 10,9 4 2 9 5 S 1003,0 7 0 0,0
07.11.2019 03:00:00 6,4 6,1 6,2 7,3 8,9 10,9 6 3 8 4 S 1002,9 9 0 0,0
07.11.2019 02:00:00 6,3 6,1 6,2 7,2 8,9 10,9 6 3 7 4 S 1002,8 8 0 0,0
07.11.2019 01:00:00 6,3 6,0 6,1 7,2 9,0 10,9 5 3 10 5 S 1003,0 9 0 0,0
07.11.2019 00:00:00 6,2 5,8 5,9 7,2 9,1 10,9 6 3 8 5 SSW 1002,9 19 0 0,0
06.11.2019 23:00:00 6,1 5,9 5,8 7,2 9,2 10,9 5 3 8 4 SW 1002,8 18 0 0,0
06.11.2019 22:00:00 6,2 5,9 5,9 7,4 9,2 10,9 5 3 9 5 SSW 1002,6 25 0 0,0
06.11.2019 21:00:00 6,2 6,0 5,7 7,5 9,3 10,9 4 2 9 5 SSW 1002,2 16 0 0,0
06.11.2019 20:00:00 6,4 6,2 5,9 7,7 9,4 10,9 4 2 6 3 SSW 1002,0 11 0 0,0
06.11.2019 19:00:00 6,7 6,5 6,3 8,0 9,5 10,9 5 3 7 4 SW 1001,8 24 0 0,0
06.11.2019 18:00:00 6,9 6,5 6,7 8,3 9,6 10,9 4 2 7 4 SW 1001,5 36 0 0,0
06.11.2019 17:00:00 7,2 6,6 6,9 8,6 9,6 10,9 3 2 7 4 W 1001,1 24 0 0,0
06.11.2019 16:00:00 7,5 6,9 7,4 9,0 9,6 10,9 5 3 13 7 W 1000,8 43 0 0,0

tt = temperature
td = dewpoint
tt 5cm = temperature 5cm
tt -5cm = temperature -5cm
tt -20cm = temperature -20cm
tt -100cm = temperature -100cm
ff = wind speed
fx = gusts
dd = wind direction
ppp = reduced air pressure
vv = visibility
sd = sunshine duration
rr = precipitation

Next stations